Regional Weather Roundup
Issued by NWS Charleston, WV

Home | Current Version | Previous Version | Graphics & Text | Print | Product List | Glossary On
Versions: 1 2 3 4 5 6 7 8 9 10 11 12 13 14 15 16 17 18 19 20 21 22 23 24 25 26 27 28 29 30 31 32 33 34 35 36 37 38 39 40 41 42 43 44 45 46 47 48 49 50
578
ASUS41 KRLX 231810
RWRRLX
West Virginia Regional Weather Roundup
National Weather Service Charleston WV
200 PM EDT SAT JUL 23 2016

Note: "fair" indicates few or no clouds below 12,000 feet with no
significant weather and/or obstructions to visibility.

WVZ003-231900-
Northern Panhandle of West Virginia

CITY           SKY/WX    TMP DP  RH WIND       PRES   REMARKS
WHEELING       PTSUNNY   90  70  51 SW5       30.00F
$$

WVZ009-231900-
Northwest West Virginia

CITY           SKY/WX    TMP DP  RH WIND       PRES   REMARKS
PARKERSBURG      N/A     88  73  61 CALM      30.04F
$$

WVZ006-231900-
Western West Virginia

CITY           SKY/WX    TMP DP  RH WIND       PRES   REMARKS
HUNTINGTON       N/A     89  71  55 VRB3      30.02F
$$

WVZ015-231900-
West Central West Virginia

CITY           SKY/WX    TMP DP  RH WIND       PRES   REMARKS
CHARLESTON       N/A     92  68  45 VRB3      30.02F HX  96
$$

WVZ022-031-231900-
North Central West Virginia

CITY           SKY/WX    TMP DP  RH WIND       PRES   REMARKS
CLARKSBURG     PTSUNNY   88  70  55 VRB5      30.02F
MORGANTOWN       N/A     88  70  55 SW6       30.01F
$$

WVZ025-035-042-045-231900-
Southern West Virginia

CITY           SKY/WX    TMP DP  RH WIND       PRES   REMARKS
BECKLEY          N/A     85  65  51 W6        30.11F
LOGAN            N/A     86  72  62 VRB3      30.05F
BLUEFIELD        N/A     85  62  46 CALM      30.14F
LEWISBURG        N/A     85  64  50 S3        30.10F
$$

WVZ047-231900-
Northern Mountains of West Virginia

CITY           SKY/WX    TMP DP  RH WIND       PRES   REMARKS
ELKINS           N/A     88  68  51 VRB6      30.08F
$$

WVZ052-231900-
Eastern Panhandle of West Virginia

CITY           SKY/WX    TMP DP  RH WIND       PRES   REMARKS
MARTINSBURG      N/A     93  69  45 W7        29.93F HX  98
PETERSBURG       N/A     95  70  43 SW6       29.98F HX 101
$$




USA.gov is the U.S. government's official web portal to all federal, state and local government web resources and services.